Weather in Batken

Kyrgyzstan     40˚03′37″N   70˚49′10″E
temp.,
°C
wind,
m/s
gust,
m/s
humid.,
%
clouds,
%
prec.,
mm/h
press.,
hPa
HPBL,
m
1 december, tue
tue100:00−2˚wnw115998 0.0 102822
03:00−1˚nw015499 0.0 102621
06:00sse115198 0.0 102622
09:00+1˚ese1150100 0.1 102522
12:00+4˚ne1143100 0.3 1025114
15:00+4˚nne114698 0.1 1024153
18:00+1˚ene117598 0.3 102632
21:00ene118693 0.0 102834
2 december, wed
wed200:00−1˚e119266 0.1 102839
03:00e1192100 0.0 102838
06:00ese1192100 0.0 102822
09:00ene1188100 0.0 102822
12:00+4˚ne117593 0.0 1027218
15:00+5˚nne1173100 0.0 1025342
18:00+3˚w1286100 0.0 102522
21:00+3˚nw1182100 0.0 102622
3 december, thu
thu300:00+2˚ene0086100 0.1 102622
03:00+2˚ese1187100 0.2 102622
06:00+3˚e0190100 0.6 102623
09:00+3˚e1196100 0.9 102734
12:00+3˚ene2297100 1.6 102683
15:00+3˚e0095100 0.1 102489
18:00+3˚ne1196100 0.1 102426
21:00+3˚nnw1198100 0.9 102455
4 december, fri
fri400:00+3˚nne0098100 2.6 102357
03:00+2˚nw2299100 3.5 1022114
06:00+1˚s1196100 7.3 102191
09:00+2˚ssw1190100 0.9 1022141
12:00+3˚nw2286100 1.3 1023320
15:00+3˚nw2384100 0.8 1023400
18:00+1˚wnw1192100 1.8 1026199
21:00+1˚nne1188100 0.7 1029268
5 december, sat
sat500:00sse0183100 0.8 1030228
03:00−1˚sse118287 0.0 103027
06:00−1˚sse117987 0.0 103024
09:00−1˚sse116969 0.0 103025
12:00+1˚n117084 0.0 1027478
15:00+1˚n117260 0.0 1025605
18:00nne118564 0.1 102657
21:00−1˚e118938 0.0 102837